Location: Newark
(34.9471°N, 136.1778°E)
Time: 00:19:03
(UTC+00:00)

LilacSat-2 - Pass Details

Date: 29 February 2020
Orbit: 514 x 534 km, 97.5° (Epoch: 01 April)

Event Time Altitude Azimuth Distance (km) Brightness Sun altitude
Rises 20:37:53 0° 13° (NNE) 2,657 ? -10.4°
Reaches altitude 10° 20:40:00 10° 14° (NNE) 1,768 ? -10.0°
Maximum altitude 20:43:48 79° 101° (E) 540 ? -9.2°
Drops below altitude 10° 20:47:38 10° 189° (S) 1,766 ? -8.4°
Sets 20:49:44 0° 190° (S) 2,654 ? -8.0°
